Back to catalog

STARLINK-35765

AliveCommunicationsVLEO
NORAD 67041·PAYLOAD·🇺🇸 United States

Launched Dec 11, 2025 from Cape Canaveral Space Force Station

Loading…

Next Passes (next 24 hours)

TLE

FreshSource: CelesTrak SupGP

Epoch: Sep 14, 2026, 14:45 UTC

1 67041C 25294M   26257.61506944 -.00034827  00000+0 -12615-2 0  2576
2 67041  43.0043  51.1804 0001808 269.0847  40.3724 15.27593220    13

Track STARLINK-35765 in real time with AllMySat

Download on the App Store